Flag for Denmark Weather past 2 weeks in Vejle, Denmark

Now
52 °F

Mostly cloudy.


Feels Like: 50 °F
Forecast: 53 / 60 °F
Wind: 6 mph from South

Location: Billund Lufthavn

Current Time: Aug 21, 2014 at 10:27:06 PM

Latest Report: Aug 21, 2014 at 9:50 PM


Visibility: N/A

Pressure: 29.83 "Hg

Humidity: 94%

Dew point: 50 °F

Location of VejleLocation

Historic Weather in Vejle — Graph

°F

Vejle temperature yesterday

Maximum temperature yesterday: 63 °F (at 3:50 PM)
Minimum temperature yesterday: 50 °F (at 2:20 AM)
Average temperature yesterday: 55 °F

Past Weeks' High & Low Weather Summary

 TemperatureHumidityPressure
High73 °F (Aug 8, 2:50 PM)100% (Aug 8, 12:50 AM)29.98 "Hg (Aug 8, 12:50 AM)
Low46 °F (Aug 15, 4:20 AM)36% (Aug 8, 4:20 PM)29.30 "Hg (Aug 18, 8:50 AM)
Average59 °F81%29.70 "Hg
* Reported Aug 6 9:20 PM — Aug 21 9:20 PM, Vejle, Weather by CustomWeather, © 2014

Note: Actual official high and low records may vary slightly from our data, if they occured in-between our weather recording intervals... More about our weather records

Advertising

Vejle weather history for previous 24 hours

 ConditionsComfort  
Time TempWeatherWind HumidityBarometerVisibility
9:20 PM
Aug 21
52 °FSprinkles. Mostly cloudy.6 mph94%29.86 "HgN/A
8:50 PM52 °FMore clouds than sun.7 mph94%29.83 "HgN/A
8:20 PM52 °FMore clouds than sun.7 mph94%29.83 "HgN/A
7:50 PM52 °FMore clouds than sun.7 mph94%29.83 "HgN/A
7:20 PM52 °FMore clouds than sun.6 mph94%29.86 "HgN/A
6:50 PM52 °FSprinkles. Partly sunny.5 mph94%29.86 "HgN/A
6:20 PM52 °FSprinkles. Partly sunny.12 mph94%29.86 "HgN/A
5:50 PM54 °FSprinkles. Partly sunny.13 mph88%29.86 "HgN/A
5:20 PM59 °FPartly sunny.13 mph63%29.86 "HgN/A
4:50 PM59 °FBroken clouds.12 mph59%29.86 "HgN/A
4:20 PM59 °FBroken clouds.15 mph59%29.86 "HgN/A
3:50 PM61 °FBroken clouds.14 mph55%29.86 "HgN/A
3:20 PM61 °FScattered clouds.14 mph55%29.86 "HgN/A
2:50 PM61 °FScattered clouds.13 mph55%29.86 "HgN/A
2:20 PM61 °FScattered clouds.13 mph59%29.86 "HgN/A
1:50 PM61 °FScattered clouds.13 mph59%29.86 "HgN/A
1:20 PM61 °FScattered clouds.12 mph68%29.86 "HgN/A
12:50 PM57 °FScattered clouds.13 mph72%29.86 "HgN/A
12:20 PM61 °FScattered clouds.14 mph63%29.86 "HgN/A
11:50 AM57 °FScattered clouds.9 mph77%29.86 "HgN/A
11:20 AM55 °FScattered clouds.10 mph82%29.86 "HgN/A
10:50 AM59 °FScattered clouds.12 mph63%29.86 "HgN/A
10:20 AM57 °FPassing clouds.10 mph72%29.86 "HgN/A
9:50 AM55 °FScattered clouds.8 mph82%29.86 "HgN/A
9:20 AM55 °FScattered clouds.8 mph88%29.86 "HgN/A
8:50 AM54 °FSprinkles. Scattered clouds.9 mph88%29.86 "HgN/A
8:20 AM52 °FPassing clouds.5 mph94%29.83 "HgN/A
7:50 AM50 °FPassing clouds.3 mph94%29.83 "HgN/A
7:20 AM48 °FScattered clouds.3 mph94%29.83 "HgN/A
6:50 AM46 °FPassing clouds.5 mph100%29.83 "HgN/A
6:20 AM46 °FPassing clouds.2 mph93%29.83 "HgN/A
5:50 AM48 °FPassing clouds.3 mph94%29.83 "HgN/A
5:20 AM48 °FPassing clouds.3 mph94%29.83 "HgN/A
4:50 AM48 °FPassing clouds.2 mph94%29.83 "HgN/A
4:20 AM48 °FSprinkles. Passing clouds.7 mph94%29.83 "HgN/A
3:50 AM48 °FPassing clouds.5 mph94%29.83 "HgN/A
3:20 AM48 °FPassing clouds.3 mph94%29.83 "HgN/A
2:50 AM48 °FPassing clouds.6 mph94%29.83 "HgN/A
2:20 AM48 °FPassing clouds.5 mph94%29.83 "HgN/A
1:50 AM48 °FPassing clouds.3 mph94%29.83 "HgN/A
1:20 AM48 °FPassing clouds.5 mph94%29.83 "HgN/A
12:50 AM48 °FPassing clouds.6 mph94%29.83 "HgN/A
12:20 AM50 °FPassing clouds.5 mph88%29.83 "HgN/A
11:50 PM
Aug 20
50 °FPassing clouds.6 mph94%29.83 "HgN/A
11:20 PM50 °FPassing clouds.6 mph94%29.83 "HgN/A
10:50 PM50 °FPassing clouds.6 mph94%29.83 "HgN/A
10:20 PM50 °FPassing clouds.6 mph94%29.80 "HgN/A
Weather by CustomWeather, © 2014

See weather overviewHow to use our weather pages